Asteroid 2007 VD184 is to make a close flyby (7.8 LD) of the Earth moon system on the 9th December, 2007. The 95 metre asteroid will appear as a magnitude 18 star, and have a relative velocity of 6.73km/seconds.
Orbital elements: 2007 VD184 Earth MOID = 0.0008 AU Epoch 2007 Oct. 27.0 TT = JDT 2454400.5 MPC M 342.26740 (2000.0) P Q n 0.36247521 Peri. 203.96362 +0.10895196 -0.99387050 a 1.9481266 Node 239.78623 +0.91548668 +0.10766607 e 0.5052594 Incl. 1.24210 +0.38731591 +0.02508878 P 2.72 H 23.2 G 0.15 U 8